Regional Weather Roundup
Issued by NWS Cleveland, OH

Home | Current Version | Previous Version | Graphics & Text | Print | Product List | Glossary On
Versions: 1 2 3 4 5 6 7 8 9 10 11 12 13 14 15 16 17 18 19 20 21 22 23 24 25 26 27 28 29 30 31 32 33 34 35 36 37 38 39 40 41 42 43 44 45 46 47 48 49 50
187
ASUS41 KCLE 241510
RWRCLE
OHIO REGIONAL WEATHER ROUNDUP
NATIONAL WEATHER SERVICE CLEVELAND, OH
1100 AM EDT TUE APR 24 2018

NOTE: "FAIR" INDICATES FEW OR NO CLOUDS BELOW 12,000 FEET WITH NO
SIGNIFICANT WEATHER AND/OR OBSTRUCTIONS TO VISIBILITY.

OHZ001>008-015>018-024>027-034-035-043-044-241600-
   NORTHWEST OHIO

CITY           SKY/WX    TMP DP  RH WIND       PRES   REMARKS
DEFIANCE       CLOUDY    55  49  80 E15G21    30.05F
FINDLAY        CLOUDY    57  47  69 E10       30.03F
TOLEDO EXPRESS CLOUDY    53  53 100 E12       30.07F
TOLEDO EXEC    CLOUDY    54  50  86 E10       30.09S
LIMA           CLOUDY    54  50  86 E14       30.02F
$$

OHZ009>014-019>023-028>033-038-089-241600-
   NORTHEAST OHIO

CITY           SKY/WX    TMP DP  RH WIND       PRES   REMARKS
CLE-HOPKINS    CLOUDY    56  46  69 SE10      30.12F
CLE-LAKEFRONT  CLOUDY    56  43  61 SE13G23   30.09F
CUY CO. ARPT   CLOUDY    57  45  62 SE17      30.12F
LORAIN-ELYRIA  CLOUDY    53  44  71 SE10      30.10F
ASHTABULA      PTSUNNY   57  39  51 SE16G28   30.15F
AKRON-CANTON   LGT RAIN  51  45  79 E15       30.11F
WOOSTER        LGT RAIN  50  47  89 SE12      30.10S
MANSFIELD      LGT RAIN  51  49  92 E13       30.07F
YOUNGSTOWN     CLOUDY    53  42  66 E15G23    30.14F
$$

OHZ042-051>053-060>062-070>072-077>081-241600-
  SOUTHWEST OHIO

CITY           SKY/WX    TMP DP  RH WIND       PRES   REMARKS
CINC-COVINGTON LGT RAIN  54  53  97 E9        29.95S
CINC-LUNKEN    LGT RAIN  56  54  93 NE6       29.97S
HAMILTON       LGT RAIN  55  52  89 E8        29.98S
DAYTON         LGT RAIN  53  52  96 E17       29.99F
WRIGHT-PAT AFB LGT RAIN  54  49  86 E10       29.99S
DAYTON GENERAL CLOUDY    54  49  83 E13       29.97S
WILMINGTON     CLOUDY    52  51  97 E12G23    29.97F
$$

OHZ036-037-039>041-045>050-054>059-063>069-073>076-082>088-241600-
  CENTRAL AND SOUTHEAST OHIO

CITY           SKY/WX    TMP DP  RH WIND       PRES   REMARKS
COLUMBUS       LGT RAIN  52  49  89 E12       30.02F
OSU AIRPORT    LGT RAIN  52  50  93 E14       30.02F
BOLTON FIELD   LGT RAIN  52  50  93 E12       30.02F
RICKENBACK AFB LGT RAIN  51  51 100 E14       30.01F
NEWARK         LGT RAIN  51  49  92 NE8       30.04F FOG
MARION         LGT RAIN  53  50  89 SE15      30.05S FOG
LANCASTER      LGT RAIN  51  50  96 E10       30.02F
ZANESVILLE     HVY RAIN  51  48  89 NE9       30.04F FOG
NEW PHILLY     LGT RAIN  51  48  89 E8        30.10F
$$




USA.gov is the U.S. government's official web portal to all federal, state and local government web resources and services.